Flag for Germany Weather past 2 weeks in Melle, Lower Saxony, Germany

Now
37 °F

Clear.


Feels Like: 35 °F
Forecast: 39 / 48 °F
Wind: 3 mph from Southeast

Location: Muenster / Osnabrueck


UV Index: 0 (Low)

Visibility: 10 mi


Pressure: 30.27 "Hg

Humidity: 81%

Dew point: 32 °F

Location of MelleLocation

Historic Weather in Melle

°F

Melle temperature yesterday

Maximum temperature yesterday: 57 °F (at 3:20 PM)
Minimum temperature yesterday: 28 °F (at 6:20 AM)
Average temperature yesterday: 45 °F

Past Weeks' High & Low Weather Summary

 TemperatureHumidityPressure
High73 °F (Apr 3, 3:20 PM)100% (Apr 2, 5:20 AM)30.48 "Hg (Apr 2, 5:20 AM)
Low28 °F (Apr 16, 6:20 AM)31% (Apr 2, 4:50 PM)29.59 "Hg (Apr 3, 3:20 PM)
Average52 °F75%30.01 "Hg
* Reported Apr 2 5:20 AM — Apr 17 5:20 AM, Melle, Weather by CustomWeather, © 2014

Note: Actual official high and low records may vary slightly from our data, if they occured in-between our weather recording intervals... More about our weather records

Advertising

Historic Weather Conditions — Data for Previous 24 hours

 ConditionsComfort  
Time TempWeatherWind HumidityBarometerVisibility
5:20 AM
Apr 17
39 °FClear.3 mph75%30.27 "Hg10 mi
4:50 AM39 °FClear.3 mph75%30.27 "Hg10 mi
4:20 AM37 °FClear.3 mph81%30.30 "Hg10 mi
3:50 AM39 °FClear.2 mph75%30.30 "Hg10 mi
3:20 AM41 °FClear.2 mph70%30.30 "Hg10 mi
2:50 AM41 °FClear.3 mph76%30.30 "Hg10 mi
2:20 AM41 °FClear.2 mph70%30.33 "Hg10 mi
1:50 AM41 °FClear.3 mph76%30.33 "Hg10 mi
1:20 AM43 °FClear.2 mph71%30.33 "Hg10 mi
12:50 AM41 °FClear.3 mph76%30.33 "Hg10 mi
12:20 AM43 °FClear.2 mph71%30.33 "Hg10 mi
11:50 PM
Apr 16
41 °FClear.2 mph81%30.33 "Hg10 mi
11:20 PM41 °FClear.1 mph76%30.36 "Hg10 mi
10:50 PM43 °FClear.1 mph71%30.33 "Hg10 mi
10:20 PM43 °FClear.2 mph76%30.33 "Hg10 mi
9:50 PM45 °FClear.3 mph71%30.33 "Hg10 mi
9:20 PM48 °FSunny.1 mph58%30.36 "Hg10 mi
8:50 PM50 °FSunny.2 mph50%30.36 "Hg10 mi
8:20 PM54 °FSunny.1 mph44%30.36 "Hg10 mi
7:50 PM55 °FSunny.2 mph41%30.36 "Hg10 mi
7:20 PM57 °FSunny.3 mph39%30.36 "Hg10 mi
6:50 PM57 °FPassing clouds.5 mph41%30.36 "HgN/A
6:20 PM57 °FPassing clouds.6 mph41%30.36 "HgN/A
5:50 PM57 °FSunny.3 mph41%30.39 "Hg10 mi
5:20 PM57 °FSunny.3 mph39%30.39 "Hg10 mi
4:50 PM57 °FSunny.2 mph31%30.39 "Hg10 mi
4:20 PM57 °FPassing clouds.5 mph36%30.39 "HgN/A
3:50 PM57 °FSunny.2 mph36%30.42 "Hg10 mi
3:20 PM57 °FSunny.3 mph48%30.42 "Hg10 mi
2:50 PM55 °FSunny.6 mph38%30.42 "Hg10 mi
2:20 PM55 °FPassing clouds.5 mph44%30.42 "HgN/A
1:50 PM55 °FSunny.6 mph44%30.45 "Hg10 mi
1:20 PM54 °FSunny.2 mph51%30.45 "Hg10 mi
12:50 PM54 °FSunny.2 mph44%30.45 "Hg10 mi
12:20 PM52 °FSunny.2 mph47%30.45 "Hg10 mi
11:50 AM50 °FSunny.3 mph50%30.45 "Hg10 mi
11:20 AM50 °FSunny.2 mph54%30.45 "Hg10 mi
10:50 AM48 °FSunny.3 mph66%30.48 "Hg10 mi
10:20 AM46 °FSunny.5 mph71%30.48 "Hg10 mi
9:50 AM45 °FSunny.5 mph76%30.45 "Hg10 mi
9:20 AM45 °FSunny.3 mph76%30.45 "Hg10 mi
8:50 AM39 °FSunny.2 mph93%30.45 "Hg10 mi
8:20 AM37 °FSunny.1 mph87%30.45 "Hg10 mi
7:50 AM32 °FSleet. Cloudy.1 mph100%30.45 "HgN/A
7:20 AM30 °FSleet. Overcast.2 mph100%30.42 "HgN/A
6:50 AM28 °FChilly.1 mph100%30.42 "HgN/A
6:20 AM28 °FChilly.1 mph100%30.42 "HgN/A
Weather by CustomWeather, © 2014

See weather overview